Salina, KS

2:14 AM CDT on May 01, 2017 (GMT -0500)
Salina Municipal

Weather History for KSLN - May, 2012

Change the Weather History Date:

Sunday, May 6, 2012

  Actual Average Record
Temperature  
Mean Temperature 69 °F 62 °F  
Max Temperature 79 °F 73 °F 101 °F (2014)
Min Temperature 59 °F 51 °F 31 °F (1944)
Degree Days  
Heating Degree Days 0 5  
Month to date heating degree days 0 33  
Since 1 July heating degree days 4044 4801  
Cooling Degree Days 4 2  
Month to date cooling degree days 63 9  
Year to date cooling degree days 138 34  
Growing Degree Days 20 (Base 50)    
Moisture  
Dew Point 62 °F    
Average Humidity 72    
Maximum Humidity 90    
Minimum Humidity 54    
Precipitation  
Precipitation T in 0.13 in 2.91 in (2007)
Month to date precipitation T 0.76  
Year to date precipitation 6.97 8.00  
Sea Level Pressure  
Sea Level Pressure 29.83 in    
Wind  
Wind Speed 16 mph (North)    
Max Wind Speed 28 mph    
Max Gust Speed 33 mph    
Visibility 9 miles    
Events Rain    
T = Trace of Precipitation, MM = Missing Value Source: NWS Daily Summary

Daily Weather History Graph

Daily Weather History Graph

Search for Another Location

Airport or City:

Trip Planner

Search our weather history database for the weather conditions in past years. The results will help you decide how hot, cold, wet, or windy it might be!

Date:

Astronomy

May. 06, 2012 Rise Set
Actual Time 6:26 AM CDT 8:28 PM CDT
Civil Twilight 5:57 AM CDT 8:57 PM CDT
Nautical Twilight 5:21 AM CDT 9:33 PM CDT
Astronomical Twilight 4:43 AM CDT 10:11 PM CDT
Moon 9:34 PM CDT (5/6) 6:38 AM CDT (5/6)
Length of Visible Light 15h 00m
Length of Day
14h 01m
Full, 100% of the Moon is Illuminated
May 6
Full
May 12
Last Quarter
May 20
New
May 28
First Quarter
Jun 4
Full

Hourly Weather History & Observations

Time (CDT) Temp. Dew Point Humidity Pressure Visibility Wind Dir Wind Speed Gust Speed Precip Events Conditions
12:53 AM 75.9 °F 70.0 °F 82% 29.68 in - SSE 16.1 mph - N/A   Clear
1:53 AM 75.0 °F 70.0 °F 84% 29.67 in - SSE 15.0 mph - N/A   Clear
2:53 AM 75.2 °F 69.8 °F 83% 29.72 in - South 13.8 mph 21.9 mph N/A   Clear
3:53 AM 73.9 °F 69.1 °F 85% 29.67 in - South 11.5 mph - N/A   Clear
4:53 AM 73.0 °F 69.1 °F 87% 29.67 in - South 10.4 mph - N/A   Clear
5:53 AM 72.0 °F 68.0 °F 87% 29.71 in 6.0 mi NW 17.3 mph 23.0 mph N/A   Partly Cloudy
6:06 AM 73.4 °F 69.8 °F 88% 29.76 in 6.0 mi NW 12.7 mph 25.3 mph N/A   Haze
6:30 AM 73.4 °F 69.8 °F 88% 29.78 in 6.0 mi NW 4.6 mph - N/A   Overcast
6:53 AM 73.9 °F 69.1 °F 85% 29.75 in 5.0 mi NNW 3.5 mph - N/A   Haze
7:53 AM 75.0 °F 70.0 °F 84% 29.76 in 5.0 mi East 8.1 mph - N/A   Haze
8:32 AM 71.6 °F 60.8 °F 69% 29.83 in 10.0 mi NNE 19.6 mph 31.1 mph N/A   Mostly Cloudy
8:53 AM 72.0 °F 60.1 °F 66% 29.79 in 10.0 mi NE 25.3 mph 31.1 mph N/A   Partly Cloudy
9:53 AM 75.0 °F 61.0 °F 62% 29.81 in 10.0 mi NE 16.1 mph 24.2 mph N/A   Clear
10:53 AM 77.0 °F 62.1 °F 60% 29.81 in 10.0 mi NE 18.4 mph 25.3 mph N/A   Partly Cloudy
11:53 AM 78.1 °F 60.1 °F 54% 29.82 in 10.0 mi NNE 13.8 mph - N/A   Overcast
12:53 PM 77.0 °F 60.1 °F 56% 29.84 in 10.0 mi NNE 12.7 mph - N/A   Overcast
1:53 PM 78.1 °F 60.1 °F 54% 29.83 in 10.0 mi NNE 17.3 mph 24.2 mph N/A   Overcast
2:53 PM 77.0 °F 61.0 °F 58% 29.84 in 10.0 mi NNE 13.8 mph - N/A   Overcast
3:53 PM 75.0 °F 60.1 °F 60% 29.85 in 10.0 mi North 20.7 mph 29.9 mph N/A   Overcast
4:53 PM 72.0 °F 59.0 °F 64% 29.86 in 10.0 mi NNW 21.9 mph 28.8 mph N/A   Overcast
5:53 PM 71.1 °F 57.9 °F 63% 29.88 in 10.0 mi North 17.3 mph 28.8 mph N/A   Overcast
6:33 PM 69.8 °F 57.2 °F 64% 29.91 in 10.0 mi North 21.9 mph 31.1 mph N/A   Overcast
6:53 PM 69.1 °F 57.0 °F 65% 29.89 in 10.0 mi North 20.7 mph 26.5 mph N/A   Overcast
7:53 PM 68.0 °F 55.9 °F 65% 29.90 in 10.0 mi North 19.6 mph - N/A   Overcast
8:53 PM 66.9 °F 55.9 °F 68% 29.92 in 10.0 mi North 19.6 mph 28.8 mph N/A   Overcast
9:53 PM 64.9 °F 55.0 °F 70% 29.97 in 10.0 mi North 20.7 mph 26.5 mph N/A   Overcast
10:50 PM 64.4 °F 55.4 °F 73% 30.00 in 10.0 mi North 19.6 mph 26.5 mph 0.00 in   Overcast
10:53 PM 64.0 °F 55.0 °F 73% 29.97 in 10.0 mi North 17.3 mph 25.3 mph 0.00 in   Overcast
11:02 PM 62.6 °F 55.4 °F 77% 29.99 in 10.0 mi North 15.0 mph 25.3 mph N/A   Overcast
11:13 PM 62.6 °F 55.4 °F 77% 30.01 in 10.0 mi North 19.6 mph - N/A   Overcast
11:53 PM 61.0 °F 55.9 °F 83% 29.99 in 10.0 mi North 17.3 mph - 0.00 in Rain Light Rain